ONEWEB-0051, 45155

Orbit data source: Space-Track

ONEWEB-0051, 45155 is a payload satellite owned by One Web (UK) in LEO that was launched on Thu, 06 Feb 2020 UTC via a SOYUZ-2-1B launch vehicle from the Tyuratam Missile And Space Complex (TTMTR). Payload-class satellites include a variety of spacecraft equipped with specific instruments for various scientific and technological missions. These include communications satellites like Starlink; space stations such as the ISS; scientific satellites like the Hubble; Earth observation satellites from companies like Planet Labs, Umbra, and HawkEye 360; GPS; miniature CubeSats for education and research; and military/defense satellites.

Loading next visibility...
Identifier
45155, 2020-008AA
Orbit
LEO
Country
Flag of UKUK
Related business
Manufacturer
One Web
Mission
Operational Commercial Communications
Bus & Motor
ARROW, Unknown motor
Mass
148 kg wet, ~140 kg dry
Launch date (UTC)
2020-02-06 (6 years ago)
Launch vehicle
SOYUZ-2-1B
Launch site
Tyuratam Missile And Space Complex (TTMTR)
Object type
Payload
Rocket body
Debris
Shape & HBR
Trap Box + 2 Pan, 6.7 m
Radar Cross Section
3.464 m², Large (>1 m²)

Expand to show TLE details & history
Last TLE update: 17 hours ago

TLE from 17 hours ago
0 ONEWEB-0051
1 45155U 20008AA  25349.21042625 -.00000220  00000-0 -65788-3 0  9998
2 45155  87.8852  57.7022 0001776 103.0641 257.0685 13.11413436286971
Epoch: 2025-12-15T05:03Z
TLE epoch observation values (Epoch: 2025-12-15T05:03:00.828Z)
Latitude
-0.00002°
Longitude
-102.16351°
Altitude
1,220.888 km
Speed
7.244 km/s
True Right ascension
03h 50m 48s
True Declination
0° 00' 00"
Sunlit
Object was in full shadow at epoch
Visualization orbit readout
Latitude
Unknown
Longitude
Unknown
Altitude
Unknown
Speed
Unknown
Apparent Right ascension
Unknown
Apparent Declination
Unknown
Sunlit
N/A
Visualization observer readout
Local Sidereal Time
20:14:14
Azimuth
Unknown
Elevation
Unknown
Doppler factor
Unknown
Orbital elements
Apogee altitude
1,216.163 km
Perigee altitude
1,213.466 km
Semi-major axis
7,592.952 km
Eccentricity
0.00018
Inclination
87.8852°
RAAN
57.7022°
Arg. of periapsis
103.0641°
True anomaly
257.04867°
Mean anomaly
257.0685°
Eccentric anomaly
257.05858°
Mean motion
3.2804 °/min
Orbital period
109.74 mins
BSTAR
-0.00065788
Loading maneuver chart data...
Computing Atmospheric mass density...
Loading historical data...
Loading historical data...
Loading historical data...
Loading historical data...
Loading historical data...
Loading historical data...
Loading historical data...

Documentation

Showing up to 5 results
|